Regional Weather Roundup
Issued by NWS Columbia, SC

Home | Current Version | Previous Version | Text Only | Print | Product List | Glossary On
Versions: 1 2 3 4 5 6 7 8 9 10 11 12 13 14 15 16 17 18 19 20 21 22 23 24 25 26 27 28 29 30 31 32 33 34 35 36 37 38 39 40 41 42 43 44 45 46 47 48 49 50
000
ASUS42 KCAE 282110
RWRCAE
REGIONAL WEATHER ROUNDUP
NATIONAL WEATHER SERVICE COLUMBIA SC
500 PM EDT THU JUL 28 2016

NOTE: "FAIR" INDICATES FEW OR NO CLOUDS BELOW 12,000 FEET WITH NO
SIGNIFICANT WEATHER AND/OR OBSTRUCTIONS TO VISIBILITY.

NOT ALL STATIONS ARE QUALITY CONTROLLED BY THE NATIONAL
WEATHER SERVICE. USE DATA WITH CAUTION...ESPECIALLY
DEWPOINT OBSERVATIONS.

SCZ001>056-GAZ040-063>065-077-282200-
...UPSTATE SOUTH CAROLINA...

CITY           SKY/WX    TMP DP  RH WIND       PRES   REMARKS
ANDERSON       PTSUNNY   90  66  45 W14       29.94F
LIBERTY        PTCLDY    89  68  49 SW14G23   29.94F
SPARTANBURG    MOSUNNY   90  64  43 SW14G21   29.91S
CLEMSON        PTSUNNY   93  65  39 W9        29.95F HX  95
GREENVILLE     MOSUNNY   91  64  40 SW16G25   29.95S
GREENWOOD      MOSUNNY   94  66  39 SW16G26   29.95S HX  97
GREER          PTSUNNY   89  67  47 SW21G26   29.92F
ROCK HILL      SUNNY     96  65  35 SW18G26   29.90F HX  98
CHESTER        PTCLDY    91  63  38 SW7       29.91F
LAURENS        MOCLDY    91  68  46 SW16G25   29.92F HX  95


...CENTRAL SOUTH CAROLINA...

CITY           SKY/WX    TMP DP  RH WIND       PRES   REMARKS
COLUMBIA APT   MOSUNNY   99  64  31 W18G25    29.89F HX 101
ORANGEBURG     SUNNY     98  67  36 SW15G22   29.92F HX 102
SUMTER SHAW    SUNNY     98  67  36 SW15      29.87F HAZE    HX 102
NEWBERRY       CLEAR     95  68  41 SW13G24   29.94F HX  99
MANNING        FAIR      95  66  38 SW13G21   29.91F HX  98
LANCASTER      CLEAR     97  63  32 W16G24    29.89S HX  98
WINNSBORO      PTCLDY    97  63  32 W13G18    29.90F HX  98


...EASTERN AND COASTAL SOUTH CAROLINA...

CITY           SKY/WX    TMP DP  RH WIND       PRES   REMARKS
MYRTLE BEACH   MOSUNNY   91  72  52 S17G25    29.93F HX  98
N MYRTLE BCH   SUNNY     90  77  65 SW21G26   29.91F HX 103
CONWAY         FAIR      95  72  46 SW9G16    29.90F HX 103
MARION           N/A     95  68  41 SW9G21    29.89F HX  99
HARTSVILLE     FAIR      95  70  43 S10       29.88F HX 101
FLORENCE       SUNNY     96  70  42 SW15G22   29.89F HX 102
CHARLESTON APT MOSUNNY   94  74  52 S15       29.93F HX 104
MOUNT PLEASANT FAIR      91  79  66 S14       29.94F HX 107
WALTERBORO     CLEAR     99  63  30 SW15      29.94F HX 100
BEAUFORT       MOSUNNY   98  67  36 W7G17     29.94F HX 102


...EASTERN GEORGIA...

CITY           SKY/WX    TMP DP  RH WIND       PRES   REMARKS
AUGUSTA BUSH F MOSUNNY   98  64  32 W17G26    29.91F HX 100
AUGUSTA DANIEL MOSUNNY   97  67  37 SW12G29   29.94F HX 101
WASHINGTON       N/A     95  72  46 W12G17    29.95F HX 103
CLAXTON        FAIR      98  67  35 S9G20     29.94F HX 103
STATESBORO     SUNNY     97  69  39 W10G17    29.94F HX 103
SAVANNAH       MOSUNNY   98  65  33 W12       29.95F HX 101


...SOUTHERN NORTH CAROLINA...

CITY           SKY/WX    TMP DP  RH WIND       PRES   REMARKS
CHARLOTTE      MOSUNNY   96  66  37 SW18G28   29.88F HX  99
MONROE         MOSUNNY   97  62  31 SW17G28   29.88F HX  98
ROCKINGHAM     PTCLDY    96  68  40 SW12G18   29.87S HX 101
RUTHERFORDTON    N/A     89  69  51 SW13G23   29.91S
ASHEVILLE      MOSUNNY   87  64  46 SW13      29.98S

$$



USA.gov is the U.S. government's official web portal to all federal, state and local government web resources and services.